Location: Carthage
(33.8834°N, 106.6595°W)
Time: 02:23:55
(UTC+00:00)

Cosmos 2322 Rocket - Pass Details

Date: 18 May 2026
Orbit: 831 x 850 km, 71.0° (Epoch: 9 June)

Event Time Altitude Azimuth Distance (km) Brightness Sun altitude
Rises 02:53:47 0° 2° (N) 3,405 5.8 -10.2°
Reaches altitude 10° 02:58:39 10° 39° (NE) 2,470 4.6 -11.0°
Maximum altitude 02:59:59 11° 53° (NE) 2,414 4.4 -11.3°
Drops below altitude 10° 03:01:19 10° 66° (ENE) 2,470 4.3 -11.5°
Enters shadow 03:03:08 - 83° (E) 2,711 4.4 -11.8°
